Location: Ajisawe
(8.4333°N, 4.3833°E)
Time: 20:30:38
(UTC+00:00)

Transit 4A - All Passes

Search period start: 17 April 2021 00:00
Search period end: 27 April 2021 00:00
Orbit: 869 x 975 km, 66.8° (Epoch: 17 April)

Date Brightness Start Highest point End Pass type
(mag) Time Alt. Az. Time Alt. Az. Time Alt. Az.
17 Apr - 09:37:35 10° N 09:43:13 53° ENE 09:48:52 10° SE daylight
17 Apr - 11:27:45 10° W 11:29:10 11° WSW 11:30:36 10° WSW daylight
17 Apr - 20:57:44 10° SE 20:59:46 12° ESE 21:01:45 10° E night (unlit)
17 Apr - 22:39:30 10° SSW 22:45:46 60° WNW 22:51:57 10° N night (unlit)
18 Apr - 09:46:40 10° NNW 09:52:28 89° WSW 09:58:18 10° SSE daylight
18 Apr - 21:04:24 10° SSE 21:09:00 21° ESE 21:13:33 10° ENE night (unlit)
18 Apr - 22:49:18 10° SW 22:55:04 36° WNW 23:00:44 10° N night (unlit)
19 Apr - 08:13:23 10° NE 08:15:28 12° ENE 08:17:33 10° E daylight
19 Apr - 09:56:07 10° NW 10:01:42 51° WSW 10:07:20 10° S daylight
19 Apr - 21:12:31 10° S 21:18:15 35° ESE 21:23:53 10° NE night (unlit)
19 Apr - 22:59:42 10° WSW 23:04:23 22° WNW 23:09:02 10° NNW night (unlit)
20 Apr - 08:20:31 10° NNE 08:24:51 21° ENE 08:29:09 10° ESE daylight
20 Apr - 10:06:00 10° NW 10:10:55 29° WSW 10:15:53 10° SSW daylight
20 Apr - 21:21:14 10° S 21:27:29 59° ESE 21:33:38 10° NNE night (unlit)
20 Apr - 23:11:22 10° W 23:13:46 12° WNW 23:16:10 10° NW night (unlit)
21 Apr - 08:28:52 10° N 08:34:09 37° ENE 08:39:28 10° SE daylight
21 Apr - 10:16:37 10° WNW 10:20:09 17° WSW 10:23:42 10° SW daylight
21 Apr - 21:30:21 10° SSW 21:36:44 83° WNW 21:43:01 10° NNE night (unlit)
22 Apr - 08:37:41 10° NNW 08:43:25 65° ENE 08:49:11 10° SSE daylight
22 Apr - 19:56:42 10° SE 19:59:59 14° ESE 20:03:14 10° ENE night (unlit)
22 Apr - 21:39:53 10° SW 21:46:00 50° WNW 21:52:03 10° N night (unlit)
23 Apr - 08:46:54 10° NNW 08:52:40 74° WSW 08:58:29 10° SSE daylight
23 Apr - 20:04:08 10° SSE 20:09:13 25° ESE 20:14:13 10° NE night (unlit)
23 Apr - 21:49:52 10° SW 21:55:18 30° WNW 22:00:41 10° N night (unlit)
24 Apr - 07:12:33 10° NNE 07:15:43 15° ENE 07:18:53 10° E daylight
24 Apr - 08:56:29 10° NW 09:01:54 42° WSW 09:07:21 10° S daylight
24 Apr - 20:12:30 10° S 20:18:28 42° ESE 20:24:19 10° NE night (unlit)
24 Apr - 22:00:34 10° WSW 22:04:39 18° WNW 22:08:42 10° NNW night (unlit)
25 Apr - 07:20:20 10° NNE 07:25:04 26° ENE 07:29:50 10° ESE daylight
25 Apr - 09:06:35 10° NW 09:11:07 24° WSW 09:15:42 10° SSW daylight
25 Apr - 20:21:22 10° SSW 20:27:42 72° ESE 20:33:56 10° NNE night (unlit)
26 Apr - 07:28:52 10° N 07:34:22 45° ENE 07:39:54 10° SE daylight
26 Apr - 09:17:41 10° W 09:20:20 13° WSW 09:23:01 10° SW daylight
26 Apr - 20:30:38 10° SSW 20:36:58 70° WNW 20:43:11 10° NNE night (unlit)
